Weather History for Blackwell, OK

Change the Weather History Date:

Friday, August 30, 2013

  Actual Average (KPNC) Record (KPNC)
Temperature  
Mean Temperature 86 °F -  
Max Temperature 104 °F 88 °F 109 °F (1951)
Min Temperature 69 °F 66 °F 56 °F (1950)
Cooling Degree Days 22    
Growing Degree Days 36 (Base 50)    
Moisture  
Dew Point 65 °F    
Average Humidity 52    
Maximum Humidity 88    
Minimum Humidity 23    
Precipitation  
Precipitation 0.00 in - - ()
Sea Level Pressure  
Sea Level Pressure 29.92 in    
Wind  
Wind Speed 6 mph (SSE)    
Max Wind Speed 18 mph    
Max Gust Speed 22 mph    
Visibility 10 miles    
Events      
Averages and records for this station are not official NWS values.
T = Trace of Precipitation, MM = Missing Value Source: NWS Daily Summary

Daily Weather History Graph

Daily Weather History Graph

Search for Another Location

Airport:

Trip Planner

Search our weather history database for the weather conditions in past years. The results will help you decide how hot, cold, wet, or windy it might be!

Date:

Astronomy

Aug. 30, 2013 Rise Set
Actual Time 6:59 AM CDT 8:00 PM CDT
Civil Twilight 6:32 AM CDT 8:26 PM CDT
Nautical Twilight 6:00 AM CDT 8:58 PM CDT
Astronomical Twilight 5:28 AM CDT 9:30 PM CDT
Moon 1:43 AM CDT (8/30) 4:12 PM CDT (8/30)
Length of Visible Light 13h 54m
Length of Day
13h 01m
Waning Crescent, 29% of the Moon is Illuminated
Aug 30
Waning Crescent
Sep 5
New
Sep 12
First Quarter
Sep 19
Full
Sep 26
Last Quarter

Hourly Weather History & Observations

Time (CDT) Temp. Heat Index Dew Point Humidity Pressure Visibility Wind Dir Wind Speed Gust Speed Precip Events Conditions
12:15 AM 80.6 °F 82.7 °F 66.2 °F 61% 29.97 in 10.0 mi SE 5.8 mph - N/A   Clear
12:35 AM 77.0 °F - 66.2 °F 69% 29.97 in 10.0 mi SE 3.5 mph - N/A   Clear
12:55 AM 77.0 °F - 66.2 °F 69% 29.97 in 10.0 mi Calm Calm - N/A   Clear
1:15 AM 75.2 °F - 66.2 °F 73% 29.97 in 10.0 mi Calm Calm - N/A   Clear
1:35 AM 75.2 °F - 66.2 °F 73% 29.96 in 10.0 mi ESE 3.5 mph - N/A   Clear
1:55 AM 75.2 °F - 66.2 °F 73% 29.97 in 10.0 mi ESE 4.6 mph - N/A   Clear
2:15 AM 75.2 °F - 66.2 °F 73% 29.97 in 10.0 mi SE 3.5 mph - N/A   Clear
2:35 AM 75.2 °F - 68.0 °F 78% 29.97 in 10.0 mi SE 4.6 mph - N/A   Clear
2:55 AM 75.2 °F - 68.0 °F 78% 29.96 in 10.0 mi SE 4.6 mph - N/A   Clear
3:15 AM 75.2 °F - 68.0 °F 78% 29.97 in 10.0 mi SE 3.5 mph - N/A   Clear
3:35 AM 75.2 °F - 68.0 °F 78% 29.96 in 10.0 mi SSE 4.6 mph - N/A   Clear
3:55 AM 75.2 °F - 68.0 °F 78% 29.96 in 10.0 mi SSE 4.6 mph - N/A   Clear
4:15 AM 75.2 °F - 68.0 °F 78% 29.96 in 10.0 mi SSE 4.6 mph - N/A   Clear
4:35 AM 75.2 °F - 68.0 °F 78% 29.95 in 10.0 mi SE 3.5 mph - N/A   Clear
4:55 AM 73.4 °F - 66.2 °F 78% 29.95 in 10.0 mi ESE 3.5 mph - N/A   Clear
5:15 AM 73.4 °F - 68.0 °F 83% 29.95 in 10.0 mi SE 3.5 mph - N/A   Clear
5:35 AM 73.4 °F - 68.0 °F 83% 29.96 in 10.0 mi ESE 4.6 mph - N/A   Clear
5:55 AM 71.6 °F - 66.2 °F 83% 29.96 in 10.0 mi Calm Calm - N/A   Clear
6:15 AM 71.6 °F - 66.2 °F 83% 29.96 in 10.0 mi East 3.5 mph - N/A   Clear
6:35 AM 71.6 °F - 66.2 °F 83% 29.96 in 10.0 mi Calm Calm - N/A   Clear
6:55 AM 71.6 °F - 66.2 °F 83% 29.97 in 10.0 mi SE 3.5 mph - N/A   Clear
7:15 AM 69.8 °F - 66.2 °F 88% 29.97 in 10.0 mi ESE 3.5 mph - N/A   Clear
7:35 AM 71.6 °F - 66.2 °F 83% 29.97 in 10.0 mi SE 3.5 mph - N/A   Clear
7:55 AM 73.4 °F - 68.0 °F 83% 29.97 in 8.0 mi SE 4.6 mph - N/A   Clear
8:55 AM 80.6 °F 83.2 °F 68.0 °F 65% 29.98 in 10.0 mi South 8.1 mph - N/A   Clear
9:15 AM 82.4 °F 85.4 °F 68.0 °F 62% 29.98 in 10.0 mi SSE 8.1 mph - N/A   Clear
9:35 AM 84.2 °F 86.6 °F 66.2 °F 55% 29.98 in 10.0 mi South 9.2 mph - N/A   Clear
9:55 AM 87.8 °F 89.4 °F 64.4 °F 46% 29.98 in 10.0 mi SSW 9.2 mph - N/A   Clear
10:15 AM 89.6 °F 91.1 °F 64.4 °F 43% 29.97 in 10.0 mi SW 10.4 mph - N/A   Clear
10:35 AM 91.4 °F 93.2 °F 64.4 °F 41% 29.97 in 10.0 mi SSW 11.5 mph 16.1 mph N/A   Clear
10:55 AM 93.2 °F 94.9 °F 64.4 °F 38% 29.97 in 10.0 mi SW 12.7 mph - N/A   Clear
11:15 AM 95.0 °F 96.0 °F 62.6 °F 34% 29.96 in 10.0 mi WSW 11.5 mph - N/A   Clear
11:35 AM 96.8 °F 98.0 °F 62.6 °F 32% 29.96 in 10.0 mi SSW 15.0 mph - N/A   Clear
11:55 AM 98.6 °F 100.0 °F 62.6 °F 30% 29.95 in 10.0 mi SW 13.8 mph 18.4 mph N/A   Clear
12:15 PM 98.6 °F 100.0 °F 62.6 °F 30% 29.95 in 10.0 mi SSW 15.0 mph 19.6 mph N/A   Clear
12:35 PM 98.6 °F 100.0 °F 62.6 °F 30% 29.94 in 10.0 mi SSW 12.7 mph 17.3 mph N/A   Clear
12:55 PM 100.4 °F 102.4 °F 62.6 °F 29% 29.94 in 10.0 mi SSW 13.8 mph 18.4 mph N/A   Clear
1:15 PM 100.4 °F 102.4 °F 62.6 °F 29% 29.93 in 10.0 mi SW 12.7 mph 18.4 mph N/A   Clear
1:35 PM 100.4 °F 102.4 °F 62.6 °F 29% 29.92 in 10.0 mi SW 10.4 mph 17.3 mph N/A   Clear
1:55 PM 102.2 °F 103.6 °F 60.8 °F 26% 29.91 in 10.0 mi SW 15.0 mph - N/A   Clear
2:15 PM 102.2 °F 103.6 °F 60.8 °F 26% 29.91 in 10.0 mi SW 12.7 mph 18.4 mph N/A   Clear
2:35 PM 104.0 °F 104.6 °F 59.0 °F 23% 29.90 in 10.0 mi SW 4.6 mph 17.3 mph N/A   Clear
2:55 PM 102.2 °F 102.4 °F 59.0 °F 24% 29.90 in 10.0 mi SSW 8.1 mph 19.6 mph N/A   Clear
3:15 PM 102.2 °F 102.4 °F 59.0 °F 24% 29.89 in 10.0 mi SSW 6.9 mph 18.4 mph N/A   Partly Cloudy
3:35 PM 104.0 °F 104.6 °F 59.0 °F 23% 29.88 in 10.0 mi South 8.1 mph 18.4 mph N/A   Partly Cloudy
3:55 PM 104.0 °F 104.6 °F 59.0 °F 23% 29.87 in 10.0 mi South 12.7 mph 19.6 mph N/A   Clear
4:15 PM 104.0 °F 104.6 °F 59.0 °F 23% 29.87 in 10.0 mi SW 10.4 mph 19.6 mph N/A   Clear
4:35 PM 104.0 °F 104.6 °F 59.0 °F 23% 29.86 in 10.0 mi SSW 12.7 mph 17.3 mph N/A   Partly Cloudy
4:55 PM 104.0 °F 104.6 °F 59.0 °F 23% 29.86 in 10.0 mi South 18.4 mph 21.9 mph N/A   Partly Cloudy
5:15 PM 102.2 °F 103.6 °F 60.8 °F 26% 29.85 in 10.0 mi SSW 8.1 mph 19.6 mph N/A   Clear
5:35 PM 102.2 °F 103.6 °F 60.8 °F 26% 29.85 in 10.0 mi South 15.0 mph 20.7 mph N/A   Partly Cloudy
5:55 PM 102.2 °F 104.2 °F 62.6 °F 27% 29.85 in 10.0 mi South 15.0 mph - N/A   Clear
6:15 PM 102.2 °F 104.2 °F 62.6 °F 27% 29.85 in 10.0 mi SSE 15.0 mph 20.7 mph N/A   Partly Cloudy
6:35 PM 100.4 °F 103.6 °F 64.4 °F 31% 29.85 in 10.0 mi SSE 16.1 mph - N/A   Clear
6:55 PM 98.6 °F 101.0 °F 64.4 °F 32% 29.85 in 10.0 mi South 13.8 mph - N/A   Clear
7:15 PM 96.8 °F 99.0 °F 64.4 °F 34% 29.85 in 10.0 mi SSE 12.7 mph 18.4 mph N/A   Clear
7:35 PM 95.0 °F 97.0 °F 64.4 °F 36% 29.85 in 10.0 mi SSE 10.4 mph - N/A   Clear
7:55 PM 93.2 °F 94.9 °F 64.4 °F 38% 29.85 in 10.0 mi SSE 10.4 mph - N/A   Clear
8:15 PM 91.4 °F 94.0 °F 66.2 °F 43% 29.85 in 10.0 mi SE 8.1 mph - N/A   Clear
8:35 PM 89.6 °F 92.2 °F 66.2 °F 46% 29.85 in 10.0 mi SE 6.9 mph - N/A   Clear
8:55 PM 87.8 °F 90.4 °F 66.2 °F 49% 29.85 in 10.0 mi SE 8.1 mph - N/A   Clear
9:15 PM 86.0 °F 88.2 °F 66.2 °F 51% 29.86 in 10.0 mi SE 6.9 mph - N/A   Clear
9:35 PM 86.0 °F 88.2 °F 66.2 °F 51% 29.86 in 10.0 mi SE 6.9 mph - N/A   Clear
9:55 PM 84.2 °F 86.6 °F 66.2 °F 55% 29.86 in 10.0 mi SSE 5.8 mph - N/A   Clear
10:15 PM 84.2 °F 87.3 °F 68.0 °F 58% 29.85 in 10.0 mi SSE 5.8 mph - N/A   Clear
10:35 PM 82.4 °F 85.4 °F 68.0 °F 62% 29.85 in 10.0 mi SE 5.8 mph - N/A   Clear
10:55 PM 82.4 °F 84.6 °F 66.2 °F 58% 29.86 in 10.0 mi SSE 4.6 mph - N/A   Clear
11:15 PM 80.6 °F 82.7 °F 66.2 °F 61% 29.86 in 10.0 mi SE 3.5 mph - N/A   Clear
11:35 PM 80.6 °F 83.2 °F 68.0 °F 65% 29.86 in 10.0 mi Calm Calm - N/A   Clear
11:55 PM 80.6 °F 83.2 °F 68.0 °F 65% 29.86 in 10.0 mi Calm Calm - N/A   Clear